[[{"header":{"parameterUnit":"m.s-1","parameterCategory":1,"la1":30.2991,"la2":30.254,"lo1":-89.0895,"lo2":-89.0444,"dy":0.0017,"dx":0.0017,"nx":28,"ny":28,"refTime":"2024-08-19T21:00:00:Z","depth":0,"parameterNumber":2,"parameterNumberName":"U-component_of_WINDS"},"data":[0,0,0,0,0,0,0,0,0,0,0,0,0,0,0,0,0,0,0,0,0,0,0,0,0,0,0,0,0,0,0,0,0,0,0,0,0,0,0,0,0,0,0,0,0,0,0,0,0,0,0,0,0,0,0,0,0,0,0.722,0.7221,0,0.7287,0.7288,0.7289,0.7336,0.7336,0.7337,0.7337,0.741,0.7412,0.7413,0,0,0,0,0,0,0,0,0,0,0,0,0,0.7138,0.7139,0.722,0.7221,0.7222,0.7287,0.7288,0.7289,0.7336,0.7336,0.7337,0.7337,0.7409,0.7411,0.7413,0,0,0,0,0,0,0,0,0,0,0,0,0,0.7186,0.7139,0.722,0.7253,0.7257,0.7287,0.7288,0.7289,0.7336,0.7336,0.7337,0.7337,0.7409,0.7411,0.7414,0.7418,0,0,0.7421,0.7422,0,0,0,0,0,0,0,0,0.7183,0.7189,0.7247,0.7251,0.7255,0.7304,0.7286,0.7333,0.7336,0.7306,0.7337,0.7338,0.7375,0.738,0.7391,0.7421,0.7425,0.7421,0.7423,0.7424,0.7424,0,0,0,0,0,0,0,0.718,0.7186,0.7247,0.7248,0.7253,0.7266,0.7274,0.7295,0.7337,0.7308,0.7312,0.7319,0.7377,0.7389,0.7393,0.7426,0.7421,0.7423,0.7425,0.7426,0.7465,0.7465,0,0,0,0,0,0,0.7171,0.7183,0.7245,0.7249,0.7219,0.7267,0.7276,0.7288,0.7336,0.7344,0.7319,0.7321,0.7384,0.7391,0.7396,0.7405,0.7424,0.7426,0.7427,0.7466,0.7465,0.7465,0,0,0,0,0,0,0.7169,0.7176,0.7242,0.7217,0.7227,0.7268,0.7281,0.7289,0.7301,0.7344,0.7352,0.7323,0.7385,0.7393,0.7412,0.7409,0.7427,0.7429,0.7466,0.7466,0.7465,0.7423,0,0,0,0,0,0,0.7166,0.7175,0.7175,0.7217,0.7228,0.7255,0.7281,0.729,0.7304,0.7308,0.735,0.7358,0.7386,0.7409,0.7415,0.7412,0.7431,0.7467,0.7466,0.7465,0.7425,0.7421,0.7418,0,0,0,0,0,0.7163,0.7161,0.7175,0.7182,0.7229,0.7255,0.7261,0.7293,0.7304,0.7306,0.7334,0.7357,0.7408,0.741,0.7418,0.7416,0.7467,0.7466,0.7465,0.7427,0.7422,0.7418,0,0,0,0,0,0,0.7119,0.7167,0.7183,0.7194,0.722,0.7263,0.7266,0.7286,0.731,0.7313,0.7353,0.7362,0.7378,0.7399,0.74,0.7424,0.7441,0.7441,0.7409,0.7405,0.7401,0.7395,0.7433,0,0,0,0,0,0.7111,0.7126,0.7168,0.7174,0.7186,0.7224,0.7236,0.7258,0.7287,0.7298,0.7328,0.7356,0.7379,0.7393,0.7417,0.7429,0.744,0.7432,0.7428,0.7425,0.7425,0.7434,0.7432,0.7462,0.7462,0.7462,0,0,0.7093,0.7122,0.7129,0.7166,0.7188,0.7205,0.7232,0.7249,0.7262,0.7301,0.7321,0.7344,0.7379,0.7395,0.7404,0.7413,0.7419,0.7424,0.7421,0.7423,0.7433,0.743,0.7428,0.7461,0.7461,0.7461,0,0,0.707,0.7093,0.7101,0.7123,0.7156,0.7182,0.7184,0.7224,0.724,0.7261,0.7291,0.7309,0.7347,0.7371,0.7388,0.7376,0.7399,0.7383,0.7364,0.7373,0.7371,0.7369,0.7365,0.7363,0.7383,0.7383,0.7383,0,0.7045,0.7069,0.7103,0.7117,0.7133,0.7169,0.7179,0.7199,0.7239,0.725,0.726,0.731,0.7336,0.7359,0.7356,0.7369,0.7374,0.7378,0.7368,0.7366,0.7365,0.7362,0.7361,0.7381,0.7381,0.7381,0.7382,0,0.7037,0.7053,0.7056,0.7093,0.711,0.7121,0.7158,0.7172,0.7193,0.7218,0.724,0.7273,0.7304,0.7311,0.7333,0.7338,0.7343,0.736,0.7378,0.7359,0.7357,0.7356,0.7378,0.7379,0.7379,0.738,0,0,0.6985,0.7041,0.7042,0.7059,0.71,0.7115,0.713,0.7159,0.717,0.7198,0.7212,0.7245,0.7261,0.728,0.7306,0.7313,0.7303,0.733,0.7332,0.7324,0.7312,0.7298,0.7296,0.7319,0.7319,0.7319,0.7309,0,0.6968,0.6994,0.7025,0.7042,0.7058,0.7095,0.7108,0.7136,0.716,0.718,0.7208,0.723,0.725,0.7262,0.7272,0.7302,0.7301,0.7304,0.7334,0.7334,0.7322,0.7295,0.728,0.7269,0.7309,0.7309,0.7309,0,0.695,0.6975,0.6992,0.7033,0.7041,0.7052,0.7082,0.71,0.7134,0.7151,0.7174,0.7201,0.7221,0.7237,0.7266,0.7267,0.7282,0.7299,0.73,0.7303,0.7319,0.7297,0.7266,0.7264,0.7308,0.7308,0.7308,0,0.6911,0.6949,0.6964,0.6978,0.7026,0.7033,0.7054,0.7088,0.7104,0.7132,0.7143,0.7173,0.7189,0.7214,0.7249,0.7258,0.7275,0.7294,0.7291,0.729,0.7291,0.729,0.7262,0.7302,0.7302,0.7302,0.7302,0,0.6887,0.6896,0.6947,0.6956,0.6968,0.7006,0.7018,0.7042,0.7073,0.7089,0.7123,0.7138,0.7185,0.7206,0.7235,0.7255,0.7262,0.7278,0.7285,0.7274,0.7272,0.7284,0.7285,0.7302,0.7302,0.7302,0.7302,0,0.6844,0.6878,0.6897,0.6942,0.6953,0.696,0.6999,0.7011,0.7038,0.7059,0.7066,0.711,0.7137,0.7175,0.7214,0.7234,0.725,0.7262,0.7238,0.7242,0.7237,0.7236,0.7214,0.7213,0.7254,0.7254,0.7253,0,0.6826,0.6834,0.6879,0.6892,0.6911,0.6931,0.6948,0.6987,0.7003,0.7043,0.7051,0.708,0.7106,0.7148,0.7185,0.7216,0.7228,0.7218,0.7233,0.7222,0.7228,0.7226,0.7228,0.7214,0.7213,0.7213,0.7212,0,0.679,0.6807,0.6829,0.6857,0.6876,0.6901,0.6927,0.6937,0.6982,0.6999,0.7026,0.7046,0.7087,0.7116,0.7152,0.7176,0.7202,0.7208,0.7209,0.7197,0.7182,0.719,0.7227,0.7208,0.7208,0.7209,0.7209,0.7209,0.6759,0.6768,0.6801,0.6825,0.6849,0.6874,0.6887,0.6916,0.6939,0.6974,0.6997,0.7023,0.706,0.711,0.7134,0.7157,0.7167,0.7168,0.7169,0.7168,0.7164,0.718,0.7164,0.7164,0.7164,0.7164,0.7164,0,0.6725,0.6748,0.677,0.6806,0.6825,0.6847,0.6879,0.6894,0.6916,0.6947,0.6971,0.7004,0.7034,0.7074,0.7107,0.7118,0.7131,0.7125,0.7124,0.7129,0.7153,0.7149,0.7114,0.7114,0.7114,0.7114,0.7114,0.7114,0.6709,0.6725,0.6747,0.6777,0.6801,0.6826,0.6842,0.6866,0.689,0.6925,0.6949,0.6974,0.701,0.7046,0.7075,0.7086,0.7097,0.7087,0.7102,0.7123,0.7128,0.7132,0.7128,0.7089,0.7089,0.7076,0.7076,0.7076]},{"header":{"parameterUnit":"m.s-1","parameterCategory":1,"la1":30.2991,"la2":30.254,"lo1":-89.0895,"lo2":-89.0444,"dy":0.0017,"dx":0.0017,"nx":28,"ny":28,"refTime":"2024-08-19T21:00:00:Z","depth":0,"parameterNumber":3,"parameterNumberName":"V-component_of_WINDS"},"data":[0,0,0,0,0,0,0,0,0,0,0,0,0,0,0,0,0,0,0,0,0,0,0,0,0,0,0,0,0,0,0,0,0,0,0,0,0,0,0,0,0,0,0,0,0,0,0,0,0,0,0,0,0,0,0,0,0,0,-2.0111,-2.0112,0,-2.0208,-2.021,-2.0211,-2.0256,-2.0256,-2.0256,-2.0256,-2.0355,-2.0358,-2.0361,0,0,0,0,0,0,0,0,0,0,0,0,0,-1.9964,-1.9966,-2.0111,-2.0112,-2.0113,-2.0208,-2.021,-2.0211,-2.0256,-2.0256,-2.0256,-2.0256,-2.0354,-2.0358,-2.0361,0,0,0,0,0,0,0,0,0,0,0,0,0,-2.0041,-1.9967,-2.011,-2.0147,-2.0151,-2.0208,-2.021,-2.0211,-2.0256,-2.0256,-2.0256,-2.0256,-2.0353,-2.0357,-2.0361,-2.0389,0,0,-2.0374,-2.0376,0,0,0,0,0,0,0,0,-2.0037,-2.0046,-2.014,-2.0145,-2.0149,-2.022,-2.0194,-2.0271,-2.0256,-2.0216,-2.0256,-2.0256,-2.031,-2.0318,-2.0336,-2.0393,-2.0398,-2.0374,-2.0377,-2.0378,-2.038,0,0,0,0,0,0,0,-2.0031,-2.0043,-2.0149,-2.0142,-2.0147,-2.0159,-2.017,-2.0209,-2.0263,-2.022,-2.0223,-2.0234,-2.0313,-2.0332,-2.0339,-2.0399,-2.0374,-2.0378,-2.038,-2.0382,-2.0485,-2.0486,0,0,0,0,0,0,-2.002,-2.0038,-2.0146,-2.0152,-2.0092,-2.0162,-2.0174,-2.0197,-2.0262,-2.0272,-2.0234,-2.0236,-2.0326,-2.0334,-2.0343,-2.038,-2.0378,-2.0382,-2.0384,-2.0485,-2.0485,-2.0486,0,0,0,0,0,0,-2.0017,-2.0029,-2.0142,-2.0096,-2.0111,-2.0164,-2.019,-2.0199,-2.0219,-2.0273,-2.0283,-2.0244,-2.0326,-2.0337,-2.0377,-2.0384,-2.0384,-2.0388,-2.0485,-2.0485,-2.0486,-2.0454,0,0,0,0,0,0,-2.0012,-2.0028,-2.0038,-2.0096,-2.0114,-2.0175,-2.0191,-2.0201,-2.0226,-2.0229,-2.0286,-2.0295,-2.0327,-2.0371,-2.0381,-2.039,-2.0391,-2.0484,-2.0485,-2.0485,-2.0455,-2.0454,-2.0453,0,0,0,0,0,-2.0007,-2.0025,-2.0039,-2.0051,-2.0128,-2.0175,-2.0185,-2.0222,-2.0226,-2.0238,-2.0273,-2.0293,-2.0382,-2.0375,-2.0387,-2.0397,-2.0484,-2.0485,-2.0485,-2.0456,-2.0454,-2.0453,0,0,0,0,0,0,-1.9966,-2.0033,-2.0049,-2.0086,-2.0125,-2.0183,-2.0198,-2.0219,-2.0256,-2.0257,-2.0301,-2.0313,-2.035,-2.0378,-2.0368,-2.0428,-2.0435,-2.0438,-2.0408,-2.0407,-2.0406,-2.0399,-2.0394,0,0,0,0,0,-1.9962,-1.9994,-2.0051,-2.0079,-2.0097,-2.0144,-2.0166,-2.0191,-2.0233,-2.0249,-2.0287,-2.0326,-2.0364,-2.0387,-2.0424,-2.046,-2.0473,-2.0472,-2.0471,-2.047,-2.0472,-2.0494,-2.0495,-2.0488,-2.0488,-2.0488,0,0,-1.9952,-1.9993,-2.0011,-2.0072,-2.0104,-2.0138,-2.0158,-2.0191,-2.0217,-2.0254,-2.0295,-2.0324,-2.0371,-2.041,-2.0428,-2.0434,-2.0477,-2.0471,-2.0469,-2.0472,-2.0495,-2.0496,-2.0496,-2.0488,-2.0488,-2.0488,0,0,-1.9953,-1.9986,-2.0014,-2.0047,-2.0096,-2.0128,-2.0134,-2.019,-2.0211,-2.0253,-2.0282,-2.0313,-2.0375,-2.0408,-2.0433,-2.0448,-2.0468,-2.0458,-2.0452,-2.0473,-2.0474,-2.0474,-2.0481,-2.0482,-2.046,-2.046,-2.046,0,-1.9935,-1.9986,-2.0025,-2.0058,-2.0084,-2.0121,-2.0149,-2.0179,-2.0238,-2.0256,-2.0261,-2.0341,-2.0375,-2.0423,-2.0426,-2.0445,-2.0454,-2.0452,-2.047,-2.0472,-2.0473,-2.0479,-2.0481,-2.0459,-2.0459,-2.0459,-2.0459,0,-1.9962,-1.9997,-2.0013,-2.007,-2.0099,-2.0129,-2.0174,-2.0198,-2.0221,-2.0252,-2.0294,-2.0337,-2.0384,-2.0397,-2.0419,-2.0448,-2.045,-2.0462,-2.047,-2.0471,-2.0478,-2.0481,-2.0457,-2.0457,-2.0458,-2.0458,0,0,-1.9938,-2.0018,-2.0023,-2.005,-2.0108,-2.0136,-2.0169,-2.0216,-2.0236,-2.0276,-2.0305,-2.0358,-2.037,-2.0398,-2.0425,-2.0444,-2.0454,-2.0454,-2.0456,-2.0453,-2.0489,-2.048,-2.0482,-2.0468,-2.0468,-2.0469,-2.0486,0,-1.9946,-2.0007,-2.0044,-2.009,-2.0123,-2.0159,-2.0188,-2.0227,-2.0257,-2.0291,-2.0324,-2.0362,-2.0375,-2.0392,-2.0412,-2.0448,-2.0462,-2.0448,-2.0496,-2.0497,-2.0483,-2.0485,-2.0475,-2.0489,-2.0488,-2.0489,-2.0489,0,-1.9964,-2.0004,-2.0053,-2.011,-2.0125,-2.015,-2.0197,-2.0228,-2.0274,-2.0295,-2.0327,-2.0354,-2.0391,-2.0397,-2.0448,-2.0438,-2.046,-2.0481,-2.0482,-2.0488,-2.0493,-2.0492,-2.0494,-2.0496,-2.0494,-2.0493,-2.0493,0,-1.9942,-2.0009,-2.0047,-2.0069,-2.0135,-2.0152,-2.0181,-2.0227,-2.0253,-2.0294,-2.0311,-2.0355,-2.038,-2.0413,-2.0452,-2.0453,-2.05,-2.0509,-2.0519,-2.0518,-2.0527,-2.0526,-2.0533,-2.0541,-2.0541,-2.0541,-2.0541,0,-1.9948,-1.9977,-2.0038,-2.0062,-2.0096,-2.0139,-2.0171,-2.0202,-2.0243,-2.0274,-2.0308,-2.0336,-2.0385,-2.042,-2.045,-2.0489,-2.0499,-2.0518,-2.0525,-2.0515,-2.0513,-2.053,-2.053,-2.0542,-2.0541,-2.0541,-2.0541,0,-1.9929,-1.9971,-2.0016,-2.0076,-2.0092,-2.0114,-2.0165,-2.019,-2.0223,-2.0261,-2.0273,-2.0324,-2.0367,-2.0409,-2.0466,-2.0487,-2.0525,-2.0535,-2.051,-2.0514,-2.0522,-2.0521,-2.0541,-2.0546,-2.0549,-2.0549,-2.0549,0,-1.993,-1.9953,-2.0016,-2.0039,-2.0067,-2.0104,-2.0132,-2.0176,-2.0203,-2.0258,-2.0276,-2.0321,-2.0359,-2.0426,-2.0468,-2.0512,-2.0524,-2.0528,-2.0531,-2.052,-2.0525,-2.0523,-2.0526,-2.0527,-2.0526,-2.0526,-2.0526,0,-1.9927,-1.9947,-1.9986,-2.0032,-2.0064,-2.0102,-2.0141,-2.0159,-2.021,-2.0239,-2.0283,-2.0313,-2.0372,-2.0417,-2.0466,-2.0496,-2.052,-2.0525,-2.053,-2.0519,-2.0503,-2.0513,-2.0506,-2.0524,-2.0524,-2.0524,-2.0525,-2.0525,-1.9918,-1.9941,-1.999,-2.0032,-2.0066,-2.0103,-2.013,-2.0166,-2.0204,-2.0256,-2.028,-2.0325,-2.0371,-2.044,-2.047,-2.0506,-2.0512,-2.0519,-2.052,-2.0521,-2.0519,-2.0498,-2.0515,-2.0515,-2.0515,-2.0515,-2.0515,0,-1.9918,-1.9951,-1.9989,-2.0044,-2.0078,-2.0098,-2.0143,-2.017,-2.0209,-2.0251,-2.0289,-2.034,-2.0384,-2.0431,-2.0478,-2.0498,-2.051,-2.0508,-2.0507,-2.0514,-2.0511,-2.0502,-2.0498,-2.0498,-2.0498,-2.0498,-2.0498,-2.0498,-1.9921,-1.9962,-1.9988,-2.0046,-2.008,-2.0124,-2.0149,-2.0183,-2.0217,-2.0273,-2.031,-2.0341,-2.0385,-2.0436,-2.0477,-2.049,-2.0506,-2.0501,-2.0517,-2.0513,-2.0514,-2.0515,-2.0508,-2.0504,-2.0504,-2.0518,-2.0518,-2.0518]}]]